Precipitable_Water
1.69 1.71 1.72 1.74 1.70 1.58 1.35 1.28 1.23 1.22 1.24 1.26 1.26 1.24 1.20 1.22 1.26 1.25 1.23 1.26 1.22 1.23 1.27 1.29 1.31 1.30 1.25 1.26 1.28 1.32 1.38 1.39 1.41 1.45 1.49 1.49 1.56 1.53 1.52 1.58 1.53 1.52 1.54 1.50 1.45 1.42 1.44 1.50 1.51 1.56 1.63 1.67 1.71 1.71 1.72 1.76 1.73 1.71 1.66 1.63 1.58 1.51 1.45
1.64 1.70 1.72 1.74 1.71 1.66 1.65 1.48 1.34 1.30 1.31 1.30 1.30 1.27 1.22 1.25 1.31 1.30 1.27 1.28 1.24 1.20 1.24 1.26 1.30 1.29 1.26 1.25 1.27 1.29 1.31 1.35 1.38 1.44 1.49 1.49 1.55 1.57 1.55 1.58 1.55 1.52 1.58 1.60 1.59 1.56 1.55 1.53 1.52 1.52 1.56 1.62 1.66 1.68 1.68 1.72 1.73 1.73 1.69 1.68 1.57 1.50 1.49
1.68 1.71 1.75 1.76 1.73 1.72 1.68 1.62 1.49 1.43 1.39 1.35 1.34 1.31 1.29 1.29 1.35 1.34 1.34 1.33 1.30 1.26 1.24 1.23 1.27 1.31 1.29 1.26 1.24 1.23 1.27 1.30 1.32 1.36 1.38 1.42 1.47 1.53 1.57 1.58 1.61 1.58 1.56 1.65 1.66 1.66 1.66 1.64 1.58 1.56 1.60 1.65 1.64 1.65 1.65 1.64 1.68 1.74 1.73 1.75 1.69 1.57 1.52
1.71 1.71 1.77 1.83 1.82 1.74 1.73 1.69 1.64 1.59 1.55 1.48 1.42 1.35 1.36 1.34 1.38 1.39 1.39 1.37 1.32 1.30 1.21 1.21 1.24 1.30 1.31 1.26 1.21 1.20 1.24 1.28 1.31 1.34 1.37 1.41 1.44 1.53 1.55 1.55 1.58 1.62 1.59 1.58 1.66 1.69 1.72 1.73 1.70 1.62 1.63 1.62 1.66 1.70 1.66 1.62 1.63 1.65 1.69 1.70 1.70 1.68 1.63
1.74 1.76 1.77 1.77 1.76 1.75 1.78 1.82 1.76 1.70 1.64 1.59 1.55 1.47 1.41 1.44 1.45 1.43 1.42 1.42 1.39 1.32 1.25 1.19 1.21 1.26 1.32 1.31 1.25 1.23 1.22 1.25 1.29 1.34 1.36 1.39 1.42 1.50 1.50 1.49 1.52 1.56 1.61 1.65 1.65 1.68 1.68 1.68 1.72 1.71 1.67 1.63 1.57 1.65 1.62 1.62 1.62 1.64 1.65 1.65 1.58 1.61 1.61
1.63 1.71 1.76 1.78 1.77 1.81 1.87 1.92 1.88 1.81 1.74 1.70 1.67 1.61 1.53 1.50 1.51 1.48 1.47 1.47 1.46 1.44 1.39 1.27 1.20 1.21 1.22 1.28 1.30 1.27 1.28 1.27 1.31 1.33 1.32 1.35 1.37 1.38 1.43 1.50 1.52 1.56 1.61 1.64 1.68 1.65 1.66 1.63 1.64 1.68 1.66 1.63 1.56 1.54 1.55 1.53 1.54 1.55 1.57 1.60 1.58 1.56 1.54
1.60 1.64 1.67 1.73 1.76 1.81 1.86 1.92 1.95 1.94 1.95 1.88 1.83 1.78 1.71 1.58 1.52 1.54 1.54 1.50 1.54 1.51 1.52 1.46 1.35 1.28 1.23 1.26 1.28 1.29 1.26 1.26 1.29 1.32 1.34 1.33 1.35 1.34 1.35 1.44 1.51 1.54 1.61 1.69 1.68 1.68 1.64 1.62 1.61 1.61 1.58 1.56 1.53 1.49 1.47 1.46 1.48 1.49 1.47 1.50 1.55 1.56 1.51
1.70 1.72 1.74 1.79 1.83 1.86 1.92 1.96 2.00 2.01 2.01 2.00 1.89 1.82 1.78 1.72 1.62 1.57 1.57 1.57 1.58 1.55 1.51 1.48 1.43 1.35 1.32 1.30 1.27 1.22 1.23 1.25 1.29 1.32 1.35 1.32 1.32 1.30 1.33 1.34 1.40 1.48 1.54 1.56 1.62 1.67 1.64 1.61 1.59 1.55 1.48 1.42 1.41 1.42 1.43 1.44 1.45 1.46 1.44 1.41 1.41 1.48 1.51
1.66 1.74 1.78 1.80 1.80 1.83 1.88 1.94 2.02 2.03 1.97 1.97 1.92 1.87 1.87 1.86 1.79 1.72 1.70 1.69 1.66 1.59 1.57 1.60 1.58 1.56 1.45 1.34 1.31 1.27 1.24 1.24 1.25 1.28 1.28 1.27 1.27 1.26 1.28 1.31 1.35 1.43 1.44 1.46 1.52 1.62 1.64 1.63 1.60 1.56 1.51 1.42 1.37 1.35 1.35 1.37 1.41 1.44 1.43 1.40 1.38 1.38 1.41
1.59 1.64 1.73 1.78 1.81 1.85 1.90 1.97 2.00 2.00 2.00 1.97 1.95 1.94 1.95 1.97 1.95 1.95 1.91 1.89 1.83 1.72 1.73 1.76 1.77 1.79 1.69 1.50 1.41 1.37 1.31 1.25 1.25 1.26 1.27 1.25 1.24 1.23 1.24 1.29 1.32 1.37 1.38 1.41 1.45 1.49 1.58 1.61 1.60 1.58 1.53 1.47 1.42 1.37 1.32 1.31 1.34 1.38 1.41 1.40 1.40 1.39 1.37
1.58 1.61 1.67 1.72 1.75 1.78 1.87 1.97 1.93 1.94 1.97 2.00 1.98 1.97 1.97 1.96 1.95 1.93 1.93 1.94 1.92 2.03 2.01 2.00 2.01 1.93 1.87 1.82 1.69 1.61 1.47 1.32 1.25 1.25 1.29 1.29 1.30 1.25 1.24 1.27 1.30 1.34 1.33 1.36 1.36 1.41 1.46 1.51 1.54 1.51 1.50 1.45 1.42 1.40 1.35 1.30 1.29 1.29 1.34 1.39 1.41 1.40 1.39
1.53 1.57 1.59 1.63 1.68 1.70 1.71 1.75 1.85 1.91 1.90 1.93 1.96 2.00 2.05 2.02 2.02 2.00 1.99 1.99 2.04 2.04 2.15 2.09 2.18 2.11 2.03 1.98 1.89 1.88 1.87 1.71 1.42 1.22 1.24 1.37 1.41 1.33 1.32 1.31 1.33 1.34 1.35 1.36 1.33 1.35 1.40 1.41 1.44 1.44 1.42 1.41 1.40 1.38 1.36 1.32 1.28 1.27 1.29 1.33 1.38 1.39 1.39
1.50 1.53 1.55 1.57 1.61 1.62 1.67 1.72 1.76 1.86 1.89 1.92 1.95 2.00 2.04 2.07 2.08 2.06 2.04 2.07 2.11 2.08 2.11 2.16 2.14 2.10 2.12 2.08 2.01 1.94 1.93 1.93 1.81 1.50 1.22 1.19 1.32 1.45 1.41 1.33 1.35 1.36 1.34 1.35 1.33 1.32 1.34 1.37 1.38 1.40 1.39 1.41 1.40 1.36 1.33 1.31 1.28 1.26 1.26 1.28 1.31 1.32 1.33
1.45 1.48 1.52 1.56 1.58 1.57 1.59 1.64 1.73 1.75 1.79 1.83 1.86 1.92 1.98 2.06 2.10 2.10 2.09 2.08 2.11 2.09 2.09 2.17 2.21 2.20 2.14 2.12 2.06 2.02 2.02 2.02 2.01 1.87 1.58 1.36 1.31 1.27 1.34 1.38 1.33 1.33 1.34 1.35 1.32 1.29 1.27 1.29 1.30 1.32 1.34 1.34 1.35 1.35 1.36 1.33 1.28 1.25 1.24 1.22 1.21 1.21 1.22
1.35 1.40 1.45 1.49 1.51 1.54 1.54 1.57 1.61 1.65 1.64 1.70 1.77 1.83 1.89 1.94 2.01 2.10 2.10 2.12 2.15 2.15 2.14 2.17 2.13 2.12 2.12 2.12 2.07 2.06 2.05 2.07 2.06 2.01 1.96 1.84 1.64 1.53 1.41 1.39 1.40 1.36 1.34 1.31 1.29 1.29 1.28 1.27 1.26 1.27 1.26 1.25 1.26 1.27 1.31 1.30 1.26 1.23 1.19 1.15 1.13 1.12 1.09
1.23 1.30 1.35 1.37 1.42 1.46 1.49 1.51 1.54 1.58 1.62 1.63 1.69 1.78 1.83 1.90 1.96 2.01 2.03 2.05 2.11 2.16 2.23 2.23 2.18 2.14 2.12 2.10 2.08 2.06 2.07 2.09 2.10 2.05 2.04 1.97 1.82 1.74 1.80 1.70 1.54 1.46 1.36 1.31 1.30 1.29 1.29 1.26 1.25 1.26 1.25 1.25 1.24 1.22 1.23 1.22 1.23 1.20 1.17 1.15 1.10 1.07 1.05
1.13 1.18 1.21 1.25 1.31 1.36 1.39 1.43 1.47 1.52 1.57 1.62 1.65 1.74 1.80 1.89 1.92 1.92 1.96 2.03 2.03 2.08 2.18 2.19 2.16 2.19 2.18 2.15 2.16 2.16 2.15 2.13 2.09 2.06 1.99 1.95 1.91 1.88 1.83 1.83 1.90 1.74 1.59 1.50 1.43 1.39 1.37 1.35 1.28 1.23 1.24 1.29 1.28 1.24 1.22 1.20 1.19 1.18 1.17 1.15 1.13 1.10 1.05
1.04 1.07 1.13 1.19 1.23 1.28 1.33 1.36 1.39 1.42 1.50 1.57 1.61 1.70 1.76 1.81 1.81 1.79 1.84 1.95 1.97 2.00 2.06 2.09 2.11 2.08 2.13 2.16 2.19 2.20 2.20 2.18 2.16 2.10 2.05 2.03 2.02 2.02 1.99 2.00 2.05 1.97 1.84 1.72 1.60 1.56 1.52 1.41 1.37 1.34 1.29 1.26 1.30 1.33 1.31 1.28 1.26 1.23 1.21 1.20 1.19 1.19 1.15
1.02 1.01 1.04 1.08 1.12 1.17 1.21 1.25 1.28 1.33 1.42 1.52 1.57 1.60 1.67 1.74 1.76 1.75 1.75 1.78 1.87 1.91 1.94 1.93 1.96 1.98 2.03 2.10 2.13 2.15 2.17 2.16 2.14 2.14 2.15 2.15 2.17 2.19 2.13 2.06 2.03 2.01 1.96 1.87 1.85 1.76 1.64 1.58 1.51 1.44 1.42 1.35 1.27 1.26 1.34 1.37 1.36 1.31 1.26 1.23 1.23 1.24 1.25
0.98 0.99 1.02 1.03 1.05 1.06 1.08 1.11 1.13 1.18 1.26 1.38 1.47 1.52 1.60 1.66 1.67 1.70 1.68 1.61 1.66 1.78 1.85 1.86 1.85 1.89 1.91 1.97 2.03 2.10 2.12 2.13 2.12 2.13 2.17 2.22 2.21 2.19 2.16 2.10 2.02 2.04 2.07 2.06 2.01 1.91 1.80 1.70 1.63 1.61 1.55 1.49 1.42 1.33 1.31 1.32 1.37 1.38 1.35 1.31 1.27 1.27 1.29
0.91 0.92 0.95 0.97 0.97 1.00 1.04 1.05 1.05 1.07 1.14 1.19 1.23 1.27 1.28 1.35 1.42 1.48 1.52 1.51 1.49 1.52 1.56 1.63 1.68 1.74 1.80 1.85 1.93 1.99 2.03 2.04 2.06 2.07 2.12 2.14 2.15 2.15 2.13 2.10 2.07 2.02 2.04 2.07 2.03 1.96 1.91 1.85 1.74 1.68 1.67 1.65 1.60 1.48 1.36 1.33 1.34 1.34 1.35 1.36 1.35 1.32 1.29
0.87 0.89 0.88 0.90 0.91 0.95 0.99 1.01 1.03 1.06 1.11 1.16 1.15 1.15 1.13 1.11 1.15 1.17 1.25 1.33 1.31 1.36 1.41 1.44 1.47 1.52 1.60 1.67 1.76 1.83 1.90 1.94 1.97 1.99 2.04 2.06 2.06 2.05 2.06 2.09 2.08 2.03 2.05 2.06 2.05 2.02 1.99 1.97 1.92 1.83 1.78 1.76 1.69 1.57 1.45 1.41 1.36 1.32 1.33 1.35 1.37 1.38 1.36
0.86 0.87 0.88 0.89 0.90 0.92 0.96 0.98 0.99 1.03 1.06 1.08 1.08 1.08 1.07 1.09 1.08 1.07 1.09 1.12 1.17 1.18 1.21 1.24 1.28 1.34 1.41 1.49 1.57 1.63 1.74 1.82 1.85 1.88 1.92 1.98 2.01 2.00 2.03 2.05 2.06 2.08 2.12 2.07 2.06 2.02 2.02 2.00 1.99 1.99 1.94 1.88 1.83 1.71 1.63 1.59 1.57 1.52 1.45 1.43 1.44 1.42 1.37
0.86 0.86 0.87 0.88 0.90 0.91 0.92 0.92 0.93 0.95 0.95 0.95 0.97 1.00 1.01 1.00 0.98 0.98 0.97 0.99 1.03 1.06 1.09 1.08 1.09 1.17 1.23 1.30 1.37 1.44 1.53 1.65 1.77 1.82 1.85 1.87 1.90 1.98 2.02 2.07 2.08 2.07 2.12 2.08 2.06 2.04 2.07 2.11 2.09 2.08 2.06 1.99 1.93 1.87 1.74 1.71 1.76 1.75 1.71 1.59 1.45 1.40 1.35
0.79 0.81 0.85 0.86 0.86 0.84 0.85 0.85 0.86 0.86 0.86 0.85 0.84 0.90 0.95 0.94 0.90 0.87 0.88 0.91 0.92 0.96 0.96 1.00 1.05 1.07 1.07 1.14 1.22 1.26 1.34 1.41 1.51 1.62 1.73 1.79 1.85 1.92 1.89 1.90 1.96 2.04 2.10 2.11 2.12 2.11 2.13 2.15 2.13 2.13 2.13 2.09 2.03 1.97 1.87 1.85 1.89 1.85 1.78 1.75 1.73 1.60 1.48
0.73 0.76 0.81 0.84 0.84 0.84 0.84 0.85 0.83 0.79 0.77 0.76 0.77 0.81 0.82 0.82 0.81 0.81 0.83 0.84 0.86 0.86 0.88 0.92 0.96 1.00 1.02 1.07 1.12 1.14 1.16 1.17 1.19 1.32 1.44 1.52 1.66 1.82 1.79 1.75 1.82 1.93 2.01 2.06 2.12 2.13 2.15 2.17 2.16 2.13 2.14 2.16 2.12 2.05 2.00 1.96 1.94 1.94 1.92 1.87 1.82 1.79 1.75
0.74 0.77 0.77 0.80 0.83 0.85 0.82 0.81 0.79 0.76 0.76 0.76 0.77 0.77 0.76 0.76 0.74 0.74 0.77 0.79 0.77 0.77 0.83 0.90 0.94 0.94 0.93 0.96 1.03 1.06 1.06 1.08 1.06 1.11 1.27 1.39 1.48 1.62 1.60 1.65 1.75 1.83 1.92 1.98 2.06 2.12 2.13 2.12 2.12 2.12 2.12 2.15 2.16 2.13 2.12 2.10 2.02 2.01 2.00 1.97 1.92 1.89 1.84
0.74 0.77 0.80 0.82 0.82 0.81 0.79 0.76 0.74 0.73 0.73 0.75 0.75 0.76 0.75 0.73 0.69 0.70 0.71 0.69 0.69 0.73 0.80 0.85 0.87 0.86 0.84 0.89 0.96 1.01 1.02 1.02 0.98 0.97 1.08 1.21 1.29 1.34 1.37 1.48 1.62 1.73 1.84 1.95 2.01 2.03 2.02 2.02 2.01 2.02 2.04 2.10 2.13 2.13 2.13 2.17 2.15 2.10 2.08 2.05 2.02 1.96 1.91
0.68 0.67 0.66 0.67 0.70 0.76 0.74 0.70 0.67 0.66 0.67 0.67 0.68 0.71 0.72 0.69 0.64 0.65 0.65 0.62 0.66 0.71 0.73 0.74 0.76 0.76 0.77 0.81 0.81 0.85 0.91 0.96 0.93 0.87 0.93 1.01 1.10 1.17 1.22 1.32 1.42 1.54 1.64 1.68 1.74 1.81 1.86 1.90 1.92 1.92 1.92 1.96 2.02 2.08 2.11 2.12 2.13 2.13 2.11 2.12 2.12 2.09 2.03
0.68 0.67 0.65 0.65 0.67 0.68 0.66 0.60 0.58 0.58 0.59 0.58 0.56 0.57 0.61 0.61 0.57 0.59 0.59 0.59 0.68 0.70 0.69 0.70 0.69 0.68 0.68 0.72 0.74 0.75 0.77 0.80 0.84 0.85 0.83 0.89 1.00 1.08 1.14 1.19 1.25 1.37 1.44 1.48 1.49 1.53 1.61 1.72 1.79 1.81 1.81 1.83 1.89 1.96 2.02 2.06 2.09 2.16 2.20 2.22 2.22 2.20 2.17
0.67 0.64 0.61 0.59 0.58 0.56 0.51 0.46 0.44 0.45 0.46 0.49 0.51 0.53 0.53 0.54 0.51 0.51 0.49 0.55 0.61 0.61 0.60 0.62 0.63 0.62 0.62 0.62 0.65 0.66 0.68 0.69 0.71 0.75 0.73 0.82 0.92 0.96 1.01 1.06 1.14 1.17 1.25 1.28 1.29 1.29 1.31 1.40 1.51 1.57 1.63 1.70 1.76 1.85 1.93 2.00 2.04 2.05 2.11 2.20 2.24 2.25 2.23
0.62 0.57 0.55 0.51 0.47 0.44 0.42 0.41 0.41 0.40 0.39 0.44 0.47 0.47 0.49 0.48 0.48 0.43 0.47 0.52 0.54 0.54 0.55 0.55 0.55 0.55 0.57 0.57 0.56 0.56 0.61 0.62 0.64 0.67 0.69 0.75 0.83 0.88 0.93 0.94 0.97 0.98 1.04 1.10 1.13 1.16 1.18 1.22 1.28 1.33 1.40 1.44 1.54 1.66 1.80 1.91 1.97 2.02 2.06 2.14 2.22 2.21 2.19
0.54 0.50 0.47 0.45 0.46 0.46 0.44 0.43 0.42 0.42 0.43 0.42 0.45 0.45 0.46 0.46 0.46 0.46 0.48 0.48 0.50 0.52 0.52 0.51 0.51 0.50 0.50 0.50 0.51 0.51 0.55 0.58 0.62 0.66 0.67 0.69 0.72 0.77 0.80 0.84 0.84 0.84 0.86 0.89 0.94 1.01 1.09 1.13 1.16 1.20 1.25 1.29 1.35 1.44 1.55 1.67 1.78 1.87 1.97 2.06 2.07 2.09 2.12
0.50 0.49 0.50 0.49 0.48 0.46 0.44 0.42 0.42 0.44 0.43 0.43 0.45 0.46 0.46 0.45 0.45 0.46 0.46 0.48 0.49 0.51 0.50 0.48 0.48 0.46 0.46 0.47 0.48 0.48 0.51 0.55 0.60 0.61 0.64 0.65 0.64 0.63 0.64 0.69 0.74 0.73 0.73 0.75 0.81 0.86 0.92 1.00 1.06 1.10 1.15 1.19 1.25 1.29 1.34 1.41 1.51 1.62 1.73 1.82 1.89 1.94 2.01
0.48 0.48 0.47 0.45 0.45 0.44 0.42 0.43 0.44 0.44 0.43 0.43 0.45 0.45 0.44 0.44 0.46 0.46 0.45 0.47 0.51 0.51 0.48 0.46 0.46 0.46 0.45 0.45 0.46 0.45 0.51 0.56 0.59 0.59 0.58 0.59 0.63 0.64 0.63 0.62 0.62 0.61 0.64 0.72 0.80 0.87 0.88 0.90 0.95 1.03 1.10 1.15 1.19 1.20 1.22 1.28 1.35 1.47 1.63 1.67 1.70 1.73 1.75
0.47 0.46 0.45 0.46 0.45 0.45 0.46 0.47 0.44 0.43 0.43 0.44 0.45 0.44 0.44 0.44 0.45 0.45 0.45 0.49 0.51 0.50 0.47 0.47 0.47 0.47 0.46 0.47 0.46 0.46 0.46 0.50 0.55 0.58 0.58 0.59 0.58 0.58 0.60 0.67 0.65 0.62 0.59 0.58 0.66 0.76 0.85 0.88 0.86 0.91 0.97 0.99 1.08 1.17 1.17 1.21 1.32 1.45 1.52 1.57 1.60 1.62 1.65
0.47 0.46 0.45 0.45 0.45 0.47 0.47 0.47 0.47 0.46 0.45 0.45 0.46 0.45 0.45 0.43 0.43 0.44 0.46 0.47 0.47 0.46 0.46 0.46 0.46 0.47 0.48 0.48 0.48 0.48 0.48 0.47 0.47 0.51 0.54 0.56 0.57 0.58 0.59 0.59 0.61 0.63 0.62 0.62 0.65 0.67 0.68 0.72 0.78 0.82 0.86 0.87 0.86 0.95 1.11 1.21 1.30 1.37 1.40 1.43 1.46 1.49 1.52
0.51 0.49 0.48 0.48 0.49 0.49 0.49 0.49 0.48 0.46 0.45 0.47 0.48 0.48 0.46 0.43 0.45 0.45 0.46 0.45 0.45 0.47 0.46 0.47 0.46 0.44 0.46 0.49 0.50 0.51 0.50 0.49 0.48 0.48 0.51 0.54 0.57 0.59 0.61 0.60 0.56 0.58 0.65 0.66 0.65 0.64 0.64 0.65 0.67 0.68 0.66 0.70 0.77 0.84 0.92 1.06 1.17 1.23 1.27 1.31 1.34 1.36 1.38
Wind_Speed
24 21 19 18 17 18 20 22 22 22 21 20 20 20 20 19 20 20 19 19 19 18 18 17 17 16 16 16 16 15 15 14 13 12 12 12 11 11 11 11 10 10 9 9 9 9 9 9 9 9 9 9 9 9 9 8 8 8 8 8 8 7 7
24 22 20 19 19 17 17 20 22 22 21 21 20 20 20 20 20 20 20 20 19 19 18 18 18 17 17 17 16 16 16 15 14 13 13 12 12 12 12 11 10 10 9 9 9 9 9 9 9 9 9 9 8 8 8 8 8 8 7 7 7 7 7
22 22 21 20 21 19 17 17 20 21 21 21 21 21 21 21 21 21 20 20 20 19 19 19 18 18 17 17 17 17 16 16 15 14 14 13 13 13 12 12 11 10 10 9 9 9 9 9 9 9 9 8 8 8 8 8 8 8 7 7 7 7 7
21 22 22 22 22 22 19 17 18 19 19 20 20 21 22 22 22 21 20 20 20 20 19 19 19 18 18 18 17 17 17 16 16 15 15 14 13 13 13 12 12 11 10 10 10 9 10 9 9 9 9 8 8 8 8 8 8 8 8 7 7 7 7
19 20 22 22 22 22 21 18 17 19 19 19 19 20 21 22 22 21 21 21 20 20 19 20 19 19 19 18 18 17 17 17 16 16 16 15 14 14 14 13 13 12 11 11 10 10 10 10 10 10 9 9 8 8 8 8 8 8 8 8 7 7 7
18 19 20 21 21 22 22 20 19 18 18 18 18 19 20 21 21 22 21 21 21 20 19 19 19 19 19 19 19 18 18 18 17 17 16 16 15 15 15 14 14 13 12 12 11 11 11 11 10 10 10 10 9 9 8 8 8 8 8 8 8 7 7
17 18 18 19 20 21 22 22 20 19 18 18 18 18 19 20 21 21 21 21 21 20 20 19 19 19 19 19 19 19 18 18 18 17 17 17 16 16 15 15 15 14 13 13 12 12 12 11 11 11 10 10 10 9 9 9 8 8 8 8 8 7 7
14 15 16 17 18 19 21 21 21 20 20 19 18 18 18 19 20 21 21 21 22 21 21 20 19 19 19 19 19 19 19 19 18 18 18 17 17 17 17 16 16 15 14 14 13 13 13 12 12 11 11 11 10 10 10 9 9 9 8 8 8 8 8
12 12 14 15 16 17 19 21 20 21 21 20 20 19 18 18 19 20 21 21 21 22 22 21 20 19 19 19 19 19 19 19 19 19 19 18 18 18 18 17 17 16 16 15 15 14 14 13 13 12 12 12 11 11 10 10 10 10 9 9 9 8 8
12 12 13 14 15 15 16 18 20 20 20 20 20 20 19 19 19 19 20 19 20 21 21 21 20 20 19 19 19 19 19 19 19 19 19 19 19 19 18 18 18 17 17 16 16 15 15 14 14 13 13 13 12 12 11 11 11 10 10 10 10 9 9
12 13 13 12 13 13 12 13 16 18 18 18 18 19 20 20 20 20 20 20 20 21 21 21 21 21 20 20 20 20 20 19 19 20 20 20 20 19 19 19 18 18 18 18 17 17 16 15 15 15 14 14 13 13 12 12 12 11 11 11 11 10 10
12 12 12 11 11 11 11 10 11 14 16 15 16 17 18 19 19 20 20 20 21 21 21 22 22 22 21 21 21 21 21 21 20 19 19 19 20 20 20 20 19 19 19 19 18 18 17 17 16 16 16 16 15 14 13 13 13 12 12 12 11 11 11
13 13 12 11 11 11 11 10 9 10 11 12 13 15 16 16 17 18 19 19 20 20 21 21 21 22 22 21 21 21 22 22 21 21 20 19 19 19 20 20 20 20 20 20 20 19 19 18 18 17 17 17 16 16 15 14 14 14 13 13 12 12 12
15 14 13 12 11 11 11 10 9 9 9 10 11 12 13 14 15 17 18 18 18 19 20 20 20 20 20 20 20 20 21 21 22 21 21 20 20 19 19 20 20 20 20 20 21 20 20 19 19 19 18 18 18 17 16 16 15 15 15 14 14 13 13
14 15 14 13 12 11 11 11 10 10 10 10 10 10 11 12 14 15 15 15 16 17 18 19 19 19 18 18 18 19 20 21 21 22 21 21 21 20 20 20 20 20 20 20 21 21 21 21 20 20 20 20 19 19 18 17 17 17 16 16 15 15 14
13 13 13 13 13 12 12 11 10 10 10 10 9 9 9 10 12 13 13 13 14 14 16 17 18 18 17 17 17 18 19 20 21 22 22 21 21 21 21 21 20 20 20 20 21 21 22 22 22 21 21 21 21 20 20 19 19 18 18 17 17 16 16
13 12 12 13 13 12 12 12 11 10 10 10 9 9 9 9 10 10 12 12 12 13 13 14 14 16 16 16 16 16 18 19 19 20 21 22 21 21 21 21 21 21 21 21 21 21 22 22 23 23 22 22 22 22 22 21 21 20 20 19 18 17 17
13 13 13 13 13 12 12 12 12 11 11 11 10 10 10 9 9 8 9 10 11 12 12 12 12 13 14 15 15 15 16 17 18 18 19 20 21 21 21 22 22 22 22 22 22 22 21 22 23 23 23 23 23 23 23 23 23 22 22 21 20 19 18
13 13 14 13 13 12 11 11 12 12 12 12 11 10 10 10 10 9 8 8 9 10 11 11 11 11 12 13 14 14 14 15 16 16 17 18 20 20 21 22 23 23 23 23 23 23 22 22 22 23 23 24 24 24 24 24 24 24 23 23 22 22 21
14 13 13 13 13 12 11 11 11 11 11 11 11 11 10 10 10 10 10 9 9 10 10 10 11 11 11 12 12 13 14 14 15 16 16 18 19 19 20 21 22 23 24 24 24 24 24 24 23 23 23 23 24 25 25 25 25 25 25 24 24 23 23
14 14 14 13 13 12 12 11 10 10 10 11 11 11 10 10 10 10 11 10 9 9 10 10 10 11 11 12 12 13 13 14 15 16 17 18 18 19 19 19 21 22 23 24 25 25 25 25 25 24 23 23 24 24 24 25 25 26 26 26 26 25 24
14 14 14 14 13 12 12 12 11 11 10 11 11 11 11 11 10 10 10 10 10 10 10 10 11 11 12 12 13 13 14 15 15 17 18 18 19 18 18 18 19 20 21 22 23 24 25 26 26 25 25 24 24 24 24 24 24 25 26 27 27 26 26
15 15 16 15 13 12 12 12 12 12 12 12 12 12 12 12 12 12 11 11 11 11 11 11 11 11 12 13 13 14 15 15 16 16 17 18 18 18 18 19 20 20 21 21 22 23 24 25 26 26 26 26 26 25 25 24 24 24 25 26 27 27 26
16 16 16 16 14 14 13 13 14 14 14 13 13 14 14 14 14 13 13 13 13 13 13 12 12 12 13 13 14 14 15 16 16 17 17 18 18 18 18 19 20 20 21 22 22 23 23 24 25 26 26 26 26 26 26 26 26 25 25 25 26 26 27
17 17 17 17 16 16 16 16 16 16 15 15 15 16 16 16 16 15 15 15 14 14 14 14 14 15 14 15 15 15 15 16 16 17 18 18 18 18 17 18 19 20 21 21 22 23 23 24 24 25 25 26 26 26 27 28 28 28 28 27 27 26 27
17 17 18 18 18 18 18 18 17 17 17 17 17 18 18 18 17 17 16 16 16 16 16 16 16 17 17 17 17 16 16 16 16 17 17 18 18 18 18 18 18 19 20 21 21 22 23 23 24 25 25 26 26 26 27 27 29 29 29 29 29 29 28
17 18 18 19 19 20 20 19 19 19 19 19 19 19 20 19 19 19 18 18 18 18 18 18 18 18 18 18 19 18 18 18 17 17 17 17 18 18 18 18 18 19 19 20 20 21 21 22 23 24 25 26 26 27 27 28 28 29 29 30 30 30 30
18 18 18 20 20 21 21 21 21 20 20 20 20 20 21 21 21 21 21 21 21 21 21 21 21 20 20 20 20 20 20 20 19 19 19 19 19 19 19 18 18 18 19 20 20 21 21 22 22 23 24 25 26 26 27 28 28 29 30 30 30 31 31
19 19 19 20 21 22 23 23 23 22 22 22 22 22 22 22 22 22 22 22 23 23 23 23 23 23 22 22 22 22 22 22 21 21 21 20 20 20 20 20 19 19 19 19 20 21 22 22 22 23 24 24 25 25 26 27 28 28 29 30 30 30 31
20 20 21 22 22 23 24 24 24 24 24 24 24 23 23 23 23 23 23 23 24 24 24 25 25 25 24 24 24 24 24 24 23 23 22 22 22 22 22 22 21 21 20 20 20 21 22 22 23 23 24 25 25 25 25 26 26 27 28 29 30 30 31
21 21 21 22 23 23 24 24 24 25 25 25 24 24 24 24 24 24 24 24 25 25 25 26 26 26 26 26 26 26 26 26 26 25 25 24 24 24 23 23 23 23 23 22 22 22 22 23 23 24 24 25 25 26 26 26 26 27 27 28 29 30 30
22 22 22 22 22 23 23 23 24 25 25 25 25 25 25 25 25 25 25 26 26 26 26 27 27 27 27 27 28 28 28 27 27 27 27 27 26 26 25 25 25 25 25 24 24 24 23 23 24 24 25 25 25 26 26 26 26 26 27 27 28 29 29
23 23 23 23 23 23 23 24 24 25 25 25 26 26 26 26 26 27 27 27 27 27 27 27 27 28 28 28 28 28 29 29 28 29 29 28 28 28 28 28 27 27 27 27 26 26 26 25 25 25 25 25 26 26 26 26 26 26 26 27 28 29 29
24 24 24 24 24 24 24 25 25 25 25 25 26 26 27 27 28 28 28 28 28 28 28 27 28 28 28 29 29 29 29 29 29 29 29 30 30 30 30 30 30 30 29 29 29 29 28 28 27 27 27 27 27 27 27 27 27 26 26 26 27 28 29
24 25 25 24 24 25 25 24 24 24 25 25 26 26 27 27 28 28 28 28 28 28 28 28 28 28 29 29 29 29 29 29 29 30 30 30 31 32 32 32 32 32 32 31 31 31 31 30 30 30 29 29 29 28 29 29 29 29 28 28 28 28 28
25 25 25 25 25 25 24 24 24 24 24 25 25 26 26 27 27 27 28 28 28 28 28 29 29 29 29 29 30 30 30 30 31 31 31 31 32 32 33 33 33 33 33 33 33 33 33 33 33 33 32 32 31 31 31 31 31 31 31 30 30 30 29
26 26 26 25 25 24 24 24 24 25 25 25 26 26 26 26 27 27 27 28 28 29 29 29 29 30 30 30 30 30 31 31 32 32 32 32 32 32 32 33 33 34 34 34 35 35 35 35 35 35 35 35 34 34 33 33 33 32 32 32 32 32 32
27 27 26 26 25 24 25 25 25 26 26 27 27 26 26 27 27 28 28 28 29 29 29 29 30 30 30 30 30 31 31 32 32 32 32 33 33 33 33 33 33 34 34 35 35 36 36 37 37 37 37 37 37 36 36 35 34 34 34 34 34 34 34
Wind_Direction
200 200 200 200 198 199 199 197 196 195 195 196 195 193 192 192 192 193 194 194 195 197 198 197 197 196 195 194 195 194 194 194 193 192 190 189 189 185 182 181 181 179 177 176 175 172 171 171 172 173 174 175 175 177 180 181 183 185 185 187 189 191 192
201 201 201 202 200 199 201 200 198 198 198 198 198 195 193 192 192 193 194 195 196 197 199 200 198 198 197 196 197 196 196 197 197 197 195 194 193 191 188 188 188 187 185 184 182 179 178 178 177 176 176 179 180 182 184 186 186 187 188 191 192 193 195
199 200 201 202 201 199 200 201 199 200 201 201 200 197 195 194 193 194 195 196 197 198 199 201 200 199 199 198 198 199 199 199 199 200 200 199 197 195 194 194 194 194 193 191 189 187 186 185 184 183 182 184 187 187 188 190 191 193 195 197 196 196 198
198 200 200 202 202 200 200 201 200 200 201 201 201 200 198 197 195 195 196 197 198 198 200 201 202 201 201 200 200 201 201 202 202 202 204 203 202 200 199 199 198 199 199 198 195 195 194 192 189 189 189 191 193 193 193 195 197 199 201 201 202 201 202
193 196 199 200 202 202 202 203 202 200 200 201 201 201 200 199 198 197 197 199 199 200 200 202 203 203 203 203 203 203 204 205 205 205 206 207 206 204 203 203 203 203 204 204 202 201 200 198 196 195 197 198 199 198 198 200 202 204 205 205 207 207 208
190 193 197 200 202 204 205 205 204 201 201 202 200 200 200 200 201 200 200 201 202 201 201 201 203 204 205 205 205 206 206 207 208 208 209 210 210 209 207 207 206 206 207 207 207 206 205 204 203 202 202 204 204 204 203 205 206 206 207 208 210 211 213
190 193 195 198 202 205 206 206 205 203 203 203 201 200 201 201 202 202 202 202 203 202 201 202 204 205 206 207 207 208 209 210 211 211 211 212 212 212 212 211 211 210 211 211 211 210 209 209 209 208 207 208 209 209 209 210 210 209 208 208 211 214 215
183 187 190 194 199 204 205 205 205 205 204 204 202 201 202 203 202 203 204 204 205 205 204 204 205 205 207 208 208 210 211 212 213 214 214 214 214 215 216 216 216 214 214 214 214 214 214 214 214 214 213 212 212 213 213 214 214 213 211 212 214 216 217
177 178 182 189 194 200 204 206 207 207 206 206 205 204 205 205 204 204 206 207 206 206 207 207 206 207 208 209 210 211 213 214 215 216 217 217 217 217 217 218 219 218 218 218 217 218 217 217 218 218 218 216 215 215 216 216 217 217 216 216 218 219 220
179 176 179 186 192 195 201 204 205 204 205 206 207 209 210 209 208 207 209 210 210 210 209 208 208 210 210 211 212 212 214 216 217 218 219 220 220 220 219 220 220 221 222 222 220 220 220 220 221 222 222 221 219 218 219 219 219 220 221 221 222 224 225
179 179 178 182 189 192 194 198 201 200 200 203 207 211 213 212 211 212 213 214 215 216 215 213 212 213 214 215 215 215 217 218 219 220 221 223 223 223 222 222 221 221 223 224 224 224 223 222 223 225 225 225 224 224 224 224 223 223 224 225 225 227 229
182 181 180 179 182 188 189 189 192 192 194 200 207 212 214 214 214 215 216 216 216 218 220 219 217 215 216 218 218 219 220 220 220 221 221 224 226 226 225 224 224 223 223 224 225 226 226 225 225 226 227 228 229 229 229 229 228 228 228 229 229 230 232
188 185 185 185 182 186 190 189 187 186 188 193 200 207 211 213 214 215 215 216 217 219 222 223 221 218 217 218 219 221 221 220 221 222 222 224 226 227 227 225 225 226 225 225 226 226 227 228 228 229 230 230 231 233 233 232 232 232 232 232 233 234 235
193 190 190 190 188 188 190 190 191 193 192 191 194 201 206 208 211 212 212 214 217 219 221 224 224 221 219 219 219 221 222 222 222 222 223 225 225 226 227 227 226 227 227 227 227 228 229 230 230 231 232 233 234 235 235 235 234 235 235 236 236 237 238
196 197 196 196 195 194 193 189 187 188 191 193 195 200 205 208 211 210 208 210 214 217 219 222 223 223 222 221 221 221 222 223 223 223 224 226 226 227 228 229 229 228 228 229 229 230 231 232 233 233 233 234 235 236 237 237 236 236 236 237 238 239 240
191 195 197 198 198 199 199 195 190 186 188 194 198 199 203 207 211 211 208 207 211 215 218 219 220 220 221 222 223 223 222 222 223 224 226 226 226 227 228 229 230 229 229 230 231 232 232 232 234 235 235 234 235 236 237 238 239 238 237 238 239 240 241
188 190 193 196 200 203 204 206 204 197 194 197 198 196 197 200 203 208 210 210 211 213 215 216 216 216 218 220 222 223 222 222 223 226 226 226 226 229 229 229 230 230 230 231 232 233 234 233 234 235 236 236 235 235 237 238 240 239 239 239 240 242 243
191 194 196 198 202 206 209 211 212 210 208 208 205 202 201 203 203 205 206 207 211 214 216 219 220 219 218 218 219 220 221 223 225 226 226 226 228 231 231 231 231 232 232 233 234 234 235 236 236 236 237 237 237 237 237 237 239 239 240 241 242 243 245
193 196 199 201 203 206 210 211 213 215 216 217 216 214 213 213 214 215 213 212 215 217 218 223 228 227 223 220 219 220 222 224 225 226 227 228 231 233 234 233 233 234 234 235 236 236 237 237 238 238 238 238 238 239 239 238 238 238 239 241 242 244 245
194 196 200 202 204 208 212 213 214 217 218 219 220 220 220 220 221 225 227 227 225 223 221 225 229 231 231 228 225 225 226 228 229 230 232 232 233 234 236 236 236 236 237 237 238 239 238 239 239 239 240 240 240 240 240 240 240 240 240 240 241 243 245
196 198 202 205 207 211 215 215 217 219 220 221 222 222 222 224 227 229 231 232 233 231 230 232 234 235 236 235 234 235 235 237 238 238 239 238 236 235 237 239 239 238 238 239 239 240 241 240 240 240 240 241 241 241 242 242 242 242 242 242 242 242 244
203 204 206 209 212 214 215 217 219 220 220 221 225 227 227 229 233 236 236 237 239 239 239 240 241 242 242 242 242 242 244 245 246 245 245 245 243 240 239 240 240 240 240 241 241 241 242 241 241 241 242 241 242 242 243 243 243 244 244 244 244 244 244
211 211 211 211 214 216 216 218 221 222 223 225 229 233 233 234 237 241 243 243 245 247 248 247 248 249 249 249 248 248 248 249 250 251 250 249 247 244 242 242 243 243 243 243 244 244 243 242 242 242 243 243 242 243 243 244 245 245 245 245 245 246 246
217 219 218 216 217 219 221 224 226 227 229 232 234 237 239 240 240 242 245 245 247 249 251 252 254 255 255 254 253 253 252 251 252 252 251 252 251 249 247 245 245 245 244 244 245 245 244 243 243 244 245 245 245 244 244 245 245 246 246 246 246 247 247
220 222 223 223 223 224 226 228 231 233 235 238 240 242 243 244 244 245 246 247 247 249 252 254 255 256 257 257 256 256 255 254 255 254 252 253 254 252 253 252 248 246 245 245 246 246 245 245 245 246 246 246 247 247 246 246 247 246 247 247 247 247 249
221 222 224 225 228 229 230 232 235 237 240 242 244 246 247 248 248 248 248 249 249 251 253 254 255 256 258 257 256 256 257 257 257 256 255 254 252 251 253 254 252 249 248 246 246 247 248 248 248 248 249 249 249 249 249 248 249 248 248 248 248 249 249
222 224 225 226 229 232 233 235 237 240 242 244 246 248 249 249 250 251 252 252 253 254 254 254 254 256 257 256 255 255 256 257 258 258 257 257 254 251 252 252 251 251 249 248 248 249 250 251 251 251 251 251 251 251 251 251 251 250 250 250 250 249 250
224 226 228 230 232 234 236 238 240 242 245 246 247 248 250 250 251 252 253 254 256 256 255 254 255 255 256 256 256 255 255 255 256 257 257 257 256 254 253 252 251 251 250 250 251 251 253 254 254 253 253 253 252 252 252 252 252 252 252 252 252 251 251
228 230 232 234 237 238 239 242 244 247 248 249 249 250 250 251 252 253 254 256 257 257 256 256 256 255 255 256 256 257 257 256 256 256 255 254 255 255 255 254 253 252 252 253 254 254 255 255 256 255 255 254 253 253 253 253 253 253 253 253 253 252 252
234 236 238 240 242 243 244 246 248 249 249 250 251 252 252 253 254 255 256 257 257 257 257 257 256 256 255 255 256 257 258 258 257 256 255 254 254 254 254 255 255 254 255 255 256 257 257 256 256 256 257 256 256 255 255 254 253 253 253 254 254 253 253
239 241 243 244 245 246 247 248 249 250 250 251 252 252 253 254 255 256 257 258 258 257 257 257 257 256 256 255 255 256 257 258 258 257 256 255 255 254 254 254 255 256 257 257 258 258 258 258 257 257 258 258 258 258 257 256 255 254 254 254 254 254 254
240 242 244 245 246 248 249 249 251 251 252 252 253 253 253 254 256 257 258 259 259 259 258 258 258 258 258 257 256 256 255 256 257 257 257 256 255 254 254 254 255 257 258 259 259 259 258 258 258 258 258 258 259 259 258 257 257 256 255 255 254 254 255
241 242 243 245 247 249 250 252 253 253 253 254 255 255 255 256 257 257 259 259 260 260 260 259 259 259 259 259 258 257 256 255 256 256 256 256 255 255 254 255 255 256 257 259 260 260 259 258 258 258 258 258 259 259 259 259 258 258 258 257 256 255 255
242 243 244 245 247 249 250 252 253 253 254 255 257 257 258 258 258 259 259 260 260 261 261 261 261 261 260 260 259 258 257 256 257 257 256 256 256 256 256 256 256 256 257 258 258 259 259 259 258 258 258 258 258 258 259 259 259 259 259 260 259 258 256
243 244 245 246 247 249 250 251 251 252 253 255 257 259 260 260 260 260 260 260 260 261 261 261 262 261 261 260 260 259 258 257 257 258 258 257 256 256 256 256 256 256 257 257 256 257 258 258 259 259 259 258 258 258 258 259 259 259 260 260 260 259 258
244 244 245 247 248 249 249 250 250 251 253 255 257 259 260 261 261 261 261 260 261 261 261 261 261 261 261 261 261 260 259 258 258 258 259 259 259 258 258 257 257 257 257 257 257 257 257 258 258 259 259 259 258 258 257 258 259 259 260 259 259 259 259
243 245 246 247 247 247 248 249 250 252 254 256 258 260 261 261 261 261 261 262 262 262 262 262 262 262 262 262 261 261 261 260 259 260 260 260 260 260 259 258 259 259 259 258 258 258 258 258 258 260 260 260 258 258 258 257 257 258 259 259 259 259 259
244 246 247 247 247 247 248 249 251 253 255 257 259 260 261 261 262 262 263 263 263 262 262 263 263 263 263 263 263 262 262 261 261 261 261 261 261 261 260 259 260 261 261 260 260 259 258 259 259 260 261 260 259 258 258 258 258 258 259 260 260 260 260